Temperature
18 18 18 18 18 18 18 18 18 18 18 18 18 18 18 17 17 17 17 17 17 17 17 17 17 17 17 17 17 16 16 16 16 16 16 16 16 16 16 16 16 15 15
18 18 18 18 18 18 18 18 18 18 18 18 18 17 17 17 17 17 17 17 17 17 17 17 17 17 17 17 16 16 16 16 16 16 16 16 16 16 16 16 15 15 15
18 18 18 18 18 18 18 18 18 18 18 18 18 18 17 17 17 17 17 17 17 17 17 17 17 17 16 17 16 16 16 16 16 16 16 16 16 16 16 15 15 15 15
18 18 18 18 17 18 18 18 18 18 17 18 18 17 17 17 17 17 17 17 17 17 17 17 17 17 17 17 16 16 16 16 16 16 16 16 16 16 16 15 15 15 15
17 18 18 17 17 17 17 17 17 17 17 17 17 17 17 17 17 17 17 17 17 17 17 17 17 16 16 16 16 16 16 16 16 16 16 16 16 16 15 15 15 15 15
18 18 18 17 17 17 17 17 17 17 17 17 17 17 17 17 17 17 17 17 17 17 17 17 16 16 16 16 16 16 16 16 16 16 16 16 16 15 15 15 15 15 15
18 18 18 17 17 17 17 17 17 17 17 17 17 17 17 17 17 17 17 17 17 17 17 16 16 16 16 16 16 16 16 16 16 16 16 15 15 15 15 15 15 14 14
18 18 18 18 17 17 17 17 17 17 17 17 17 17 17 17 17 17 17 17 17 17 16 16 16 16 16 16 16 16 16 16 16 15 15 15 15 15 15 15 14 14 14
18 18 18 18 17 17 17 17 17 17 17 17 17 16 16 16 16 17 17 17 17 16 16 16 16 16 16 16 16 16 16 16 15 15 15 15 15 15 15 14 14 14 14
18 18 18 18 18 17 17 17 17 17 17 17 17 16 16 16 16 16 16 16 16 16 16 16 16 16 16 16 16 15 15 15 15 15 15 15 15 15 14 14 14 14 14
18 18 18 18 18 18 17 17 17 17 17 17 17 17 16 16 16 16 16 16 16 16 16 16 16 16 15 15 15 15 15 15 15 15 15 15 14 14 14 14 14 14 13
18 18 18 18 18 18 17 17 17 17 17 17 17 17 16 16 16 16 16 16 16 16 16 16 16 15 15 15 15 15 15 15 15 15 15 15 14 14 14 14 14 13 13
18 18 18 18 18 18 17 17 17 17 17 17 17 17 16 16 16 16 16 15 15 16 16 16 15 15 15 15 15 15 15 15 15 15 14 14 14 14 14 14 14 13 13
18 18 18 18 18 18 17 17 17 17 17 17 17 17 16 16 16 16 16 15 15 15 15 15 15 15 15 15 15 15 15 15 15 14 14 14 14 14 14 14 13 13 13
18 18 18 18 18 18 18 17 17 17 17 17 17 17 16 16 16 16 16 15 15 15 15 15 15 15 15 15 15 14 14 14 14 14 14 14 14 14 13 13 13 13 13
18 18 18 18 18 18 18 17 17 17 17 17 17 17 17 16 16 16 16 15 15 15 15 15 15 15 15 15 14 14 14 14 14 14 14 14 14 13 13 13 13 13 13
19 18 18 18 18 18 17 17 17 17 17 17 17 17 16 16 16 16 16 15 15 15 15 15 15 15 14 14 14 14 14 14 14 14 13 13 13 13 13 13 13 13 13
19 18 18 18 18 18 17 17 17 17 17 17 17 16 16 16 16 16 16 15 15 15 15 15 15 14 14 14 14 14 14 14 14 13 13 13 13 13 13 13 12 12 12
19 18 18 18 18 17 17 17 17 17 17 17 16 16 16 16 16 16 15 15 15 15 15 15 15 14 14 14 14 14 14 13 13 13 13 13 13 13 13 12 12 12 12
19 19 18 18 18 17 17 17 17 17 17 16 16 16 16 16 16 15 15 15 15 15 15 14 14 14 14 14 14 13 13 13 13 13 13 13 13 13 12 12 12 12 12
19 18 18 18 17 17 17 17 17 17 16 16 16 16 16 15 15 15 15 15 15 15 14 14 14 14 14 14 13 13 13 13 13 13 13 13 13 13 13 12 12 12 12
18 18 18 18 17 17 17 17 16 16 16 16 16 16 16 15 15 15 15 15 15 14 14 14 14 14 14 13 13 13 13 13 12 13 13 13 12 12 12 12 12 12 12
18 18 18 17 17 17 17 17 16 16 16 16 16 15 15 15 15 15 15 14 14 14 14 14 14 13 13 13 13 13 13 13 12 12 12 12 12 12 12 12 12 12 12
18 18 17 17 17 17 17 17 16 16 16 16 15 15 15 15 15 14 14 14 14 14 14 13 13 13 13 13 13 13 12 12 12 12 12 12 12 12 12 12 12 12 12
18 17 17 17 17 17 17 16 16 16 16 15 15 15 15 15 14 14 14 14 14 14 14 13 13 13 13 13 12 12 12 12 12 12 12 11 12 12 12 12 12 11 11
17 17 17 17 16 16 16 16 16 15 15 15 15 15 14 14 14 14 14 14 14 14 13 13 13 13 12 12 12 12 12 11 11 11 12 11 11 11 11 11 11 11 11
Wind_Speed
1 2 2 2 2 2 2 2 1 1 1 1 1 1 1 2 2 2 3 4 5 5 6 6 6 6 7 7 7 7 8 8 8 8 8 9 9 9 10 11 11 11 10
1 1 1 1 2 2 1 1 1 1 1 1 1 0 1 1 1 2 2 3 4 4 4 5 6 6 6 7 7 7 7 7 8 8 8 8 9 9 9 10 11 11 10
2 2 1 1 1 1 2 2 2 2 1 1 1 1 0 0 1 2 2 2 2 3 3 4 4 5 6 7 6 7 6 6 6 8 8 8 8 9 9 9 10 10 10
2 2 1 0 1 2 2 1 1 2 1 1 1 1 1 1 1 1 1 2 2 2 3 4 4 4 5 6 6 7 6 5 6 7 8 8 8 9 10 10 9 9 10
2 3 1 0 1 2 1 1 1 1 1 1 1 1 1 1 1 1 0 1 2 2 3 4 5 5 5 6 6 6 6 6 6 7 7 7 7 8 9 10 10 9 9
2 3 1 1 1 1 1 1 1 1 1 1 1 2 2 2 1 1 1 1 1 2 3 3 3 4 5 5 5 5 5 6 6 6 6 6 6 7 8 10 10 9 9
3 2 1 1 1 1 1 1 1 2 1 1 2 2 2 2 1 1 1 1 1 2 2 3 3 3 3 3 4 5 5 5 5 5 5 5 6 6 7 9 10 10 10
3 3 2 2 1 1 1 1 1 1 0 1 1 1 2 2 2 2 1 1 1 1 1 2 2 2 2 2 3 3 3 4 4 4 4 4 5 6 7 8 9 9 9
3 3 3 2 2 2 1 1 1 2 1 1 1 2 1 2 2 2 1 1 2 1 2 2 2 2 2 2 2 3 3 3 3 3 3 3 3 4 5 7 7 8 8
2 2 3 3 2 1 2 2 2 2 2 1 1 1 2 2 1 1 2 2 2 2 3 2 2 2 2 1 2 2 2 2 2 2 3 3 4 5 6 6 7 7 8
1 2 2 2 2 2 2 2 1 2 2 2 1 1 1 0 1 2 2 3 3 2 3 2 2 2 2 1 1 1 1 2 2 2 3 3 3 4 5 7 7 7 7
1 2 2 2 2 2 2 2 2 2 2 2 1 1 2 1 2 2 2 2 3 3 2 2 2 2 2 1 1 0 1 1 2 2 2 2 2 3 4 5 5 6 6
2 3 2 2 2 2 2 2 2 2 2 2 2 2 2 2 2 2 2 2 2 2 2 1 2 2 1 1 1 1 1 1 1 2 2 2 2 2 3 3 4 5 6
3 2 2 2 2 2 2 2 2 2 1 2 2 2 2 2 2 2 2 1 1 2 1 2 1 1 1 1 1 0 1 1 1 1 1 1 2 2 3 4 3 4 4
3 2 2 2 2 2 2 1 1 2 1 2 2 2 2 2 2 3 3 3 2 3 3 1 1 1 1 0 0 0 1 1 1 1 1 1 1 2 2 3 3 3 4
3 2 2 3 2 2 2 2 2 2 2 2 2 2 2 2 2 2 3 2 3 3 2 1 1 1 1 1 1 0 1 2 2 2 2 2 2 2 2 2 3 4 4
3 3 3 3 2 2 2 2 2 2 2 2 2 2 3 3 2 2 2 2 2 2 2 2 1 1 1 1 1 1 0 0 0 1 1 1 1 1 1 1 2 3 4
3 3 3 2 2 2 2 2 3 2 2 3 3 3 3 2 2 2 2 2 2 2 3 2 1 1 0 1 1 1 1 0 0 1 1 1 1 1 1 1 2 3 4
3 2 2 3 3 3 2 2 3 2 2 3 3 3 3 2 2 2 2 2 2 2 2 2 1 1 0 0 1 1 1 1 1 1 2 2 2 3 3 3 3 3 4
4 3 3 3 3 3 3 3 3 3 2 3 2 2 2 2 3 3 2 2 2 2 2 2 1 1 1 0 0 1 1 1 1 1 2 3 3 4 4 5 5 5 5
4 3 3 3 2 2 3 3 2 2 2 2 2 2 2 2 3 3 2 2 2 2 2 2 2 1 1 1 2 2 2 2 2 2 2 2 2 2 3 5 6 6 5
3 3 3 3 3 3 3 3 2 2 2 2 2 2 2 1 2 2 3 4 4 4 4 3 3 3 3 3 2 3 2 1 2 1 2 3 2 3 4 4 5 6 6
4 3 3 3 3 3 3 3 3 2 2 2 2 2 2 1 1 2 2 2 3 4 5 4 4 4 4 4 4 3 3 3 3 2 2 3 2 4 4 5 6 7 7
4 3 3 3 3 3 3 3 4 3 2 2 2 3 2 2 2 2 2 2 2 3 4 4 5 5 4 4 4 4 3 3 2 2 3 3 3 4 4 4 6 8 8
3 2 2 3 3 3 3 4 3 2 2 3 3 2 3 3 3 2 2 3 3 3 3 3 3 3 3 3 3 2 1 2 3 3 3 3 2 3 3 3 5 7 9
3 3 2 2 3 3 3 3 3 2 2 3 2 2 3 3 4 3 3 3 4 4 3 2 2 1 2 2 4 4 4 3 3 3 3 3 2 1 2 2 2 3 5
Wind_Direction
67 60 60 61 60 71 87 89 89 71 63 58 97 137 174 201 220 225 230 228 229 229 230 233 233 231 232 236 235 237 239 235 230 226 225 223 220 221 220 219 217 214 214
117 100 80 62 47 55 79 110 127 103 45 67 61 112 201 218 227 229 238 245 243 235 233 237 236 239 239 238 237 232 233 235 230 226 228 226 225 224 225 224 221 217 215
141 121 102 53 32 70 87 92 89 84 67 61 48 28 3 261 223 224 230 240 259 251 242 241 240 244 247 244 239 232 231 236 232 230 231 229 227 225 224 223 222 216 212
149 129 103 33 44 79 86 82 75 81 63 59 37 4 5 351 265 230 233 245 256 271 269 260 256 258 254 246 244 241 236 235 233 234 235 232 232 227 221 217 213 209 208
155 143 137 121 74 78 64 77 68 98 109 86 54 19 6 349 323 266 265 266 263 266 272 274 267 264 263 252 250 244 239 234 233 236 236 232 231 227 216 210 209 208 208
169 151 146 113 87 82 54 68 80 64 92 75 69 33 1 348 4 352 275 278 281 267 263 270 283 278 273 264 262 257 243 240 239 237 241 237 229 225 216 210 207 207 205
177 163 156 133 122 118 119 106 93 78 59 77 65 18 360 5 8 343 320 309 299 282 275 273 269 272 281 272 270 269 257 247 243 240 239 236 232 224 217 206 205 206 205
196 190 176 177 170 140 106 109 116 117 128 99 102 66 345 340 351 2 3 340 309 302 287 291 283 266 263 273 274 275 275 252 246 245 236 232 226 214 208 202 201 205 206
211 194 183 182 177 170 200 217 180 169 195 240 148 149 157 261 310 338 351 357 337 318 302 306 291 280 260 267 273 276 280 264 258 240 225 209 190 185 189 191 191 194 194
225 205 191 189 193 193 214 230 199 185 174 221 230 193 198 188 209 307 333 340 322 314 305 311 308 295 280 264 260 270 283 265 258 247 231 210 189 187 191 188 187 185 183
273 235 204 191 200 214 225 232 215 196 188 197 200 196 182 164 206 214 286 315 334 320 305 303 306 308 307 293 281 263 273 255 241 236 229 211 194 198 198 194 191 187 186
283 265 221 202 209 221 230 232 222 204 201 200 198 197 197 199 210 202 243 287 306 312 320 321 317 310 304 309 291 330 358 251 228 225 222 204 183 191 191 188 189 190 190
250 255 226 208 216 228 232 222 210 221 209 202 209 218 222 230 204 188 204 263 288 300 313 323 313 316 314 350 345 7 45 70 124 170 171 169 175 182 183 183 190 196 198
237 241 219 215 218 226 234 212 214 229 213 212 223 219 232 240 214 201 197 207 286 297 299 297 324 320 331 358 355 358 91 97 125 148 176 181 174 177 188 190 191 201 202
227 225 226 229 229 227 227 200 211 233 213 217 226 224 233 246 230 227 219 213 214 276 291 289 299 317 296 330 325 147 181 172 187 184 181 180 182 172 183 188 191 197 196
226 222 231 234 231 230 220 200 223 234 214 234 233 240 247 251 243 232 227 228 223 227 258 281 270 314 339 344 336 273 229 223 227 208 192 183 182 181 194 202 206 204 197
223 231 231 228 229 233 223 212 237 241 236 256 259 251 261 257 248 244 225 217 215 199 232 279 299 338 335 325 349 6 329 242 253 224 199 190 190 190 196 205 208 202 206
222 225 222 221 232 236 223 218 237 247 245 255 260 260 271 270 261 254 230 224 223 212 206 247 287 328 301 305 333 350 6 9 269 278 223 212 216 224 212 214 230 225 218
214 211 204 220 234 238 231 225 225 236 245 251 252 252 262 258 268 268 247 229 223 210 195 199 247 278 285 34 22 355 357 335 294 300 267 243 239 248 244 234 233 230 224
206 208 210 225 234 237 232 228 229 241 251 253 248 244 246 238 245 242 237 228 210 187 174 182 212 248 261 251 164 264 306 295 283 281 276 260 242 242 243 241 241 237 225
216 210 207 225 235 235 241 234 232 235 237 250 255 252 246 245 239 227 216 207 193 188 183 192 220 237 243 222 224 216 236 271 265 255 267 273 256 253 253 248 243 237 219
209 201 207 215 232 249 244 218 204 221 222 235 249 264 258 259 265 236 220 207 192 191 201 207 224 235 248 240 230 215 216 237 262 245 240 275 251 258 255 245 244 231 220
204 201 213 212 230 244 218 201 193 199 211 229 234 253 272 275 246 255 248 235 223 213 204 208 219 231 233 225 211 220 224 230 246 240 218 264 263 264 262 246 234 229 225
198 203 215 220 227 240 210 198 194 203 226 243 240 231 237 267 265 239 242 259 260 249 235 222 226 235 235 221 209 217 223 226 248 240 204 244 263 264 267 254 236 229 228
200 205 212 218 225 249 221 207 195 214 250 266 259 242 231 251 261 227 225 253 275 279 266 236 236 248 239 205 176 167 198 234 263 252 210 227 252 267 269 259 250 232 230
193 197 215 224 224 246 242 216 197 214 250 269 275 266 250 249 256 234 233 240 260 272 278 278 273 281 250 215 188 199 207 225 254 255 210 207 226 228 264 259 265 247 235
Height
1542 1543 1543 1543 1544 1544 1545 1545 1546 1546 1546 1547 1547 1548 1548 1548 1549 1549 1549 1549 1549 1549 1549 1549 1549 1550 1550 1550 1550 1551 1551 1551 1551 1552 1552 1553 1554 1554 1555 1556 1557 1559 1560
1544 1544 1544 1545 1545 1545 1545 1546 1546 1546 1546 1547 1547 1547 1548 1548 1548 1548 1548 1548 1549 1548 1548 1548 1548 1548 1548 1548 1548 1549 1549 1549 1549 1550 1550 1551 1551 1552 1552 1553 1554 1556 1557
1545 1545 1545 1546 1546 1546 1546 1546 1546 1546 1546 1547 1547 1547 1547 1547 1547 1547 1547 1547 1547 1547 1547 1547 1547 1547 1547 1547 1547 1547 1547 1547 1547 1547 1548 1548 1548 1549 1549 1550 1551 1553 1554
1546 1546 1546 1546 1547 1547 1547 1546 1546 1546 1546 1546 1546 1546 1546 1546 1546 1546 1546 1546 1546 1546 1546 1546 1546 1546 1545 1545 1545 1545 1545 1545 1545 1545 1545 1545 1546 1546 1546 1547 1548 1550 1551
1547 1547 1547 1547 1547 1547 1547 1547 1546 1546 1546 1546 1546 1546 1545 1545 1545 1545 1545 1545 1545 1545 1545 1545 1544 1544 1544 1543 1543 1543 1543 1543 1543 1543 1543 1543 1543 1542 1543 1544 1545 1547 1548
1547 1547 1547 1547 1547 1547 1547 1547 1547 1546 1546 1546 1545 1545 1545 1544 1544 1544 1544 1544 1544 1544 1544 1543 1543 1542 1542 1541 1541 1541 1541 1541 1540 1540 1540 1540 1539 1539 1540 1541 1542 1544 1545
1547 1547 1547 1547 1547 1547 1547 1547 1547 1546 1546 1545 1545 1544 1544 1544 1544 1543 1543 1543 1543 1542 1542 1541 1541 1540 1539 1539 1539 1539 1539 1539 1538 1538 1537 1537 1537 1536 1537 1537 1539 1541 1543
1547 1547 1546 1547 1547 1547 1546 1546 1546 1546 1545 1545 1545 1544 1543 1544 1543 1542 1542 1542 1542 1541 1540 1539 1539 1538 1537 1537 1537 1537 1537 1536 1536 1536 1535 1535 1534 1534 1534 1535 1537 1538 1540
1546 1546 1546 1546 1546 1546 1546 1546 1546 1545 1545 1545 1544 1544 1543 1542 1542 1541 1541 1541 1540 1539 1539 1538 1537 1536 1535 1534 1534 1535 1535 1534 1534 1534 1533 1533 1532 1532 1532 1534 1535 1536 1537
1546 1546 1546 1546 1546 1546 1545 1545 1545 1544 1544 1544 1543 1543 1543 1542 1541 1540 1540 1539 1539 1538 1537 1536 1535 1534 1533 1533 1532 1532 1532 1532 1532 1532 1531 1531 1531 1531 1531 1532 1533 1534 1535
1545 1545 1545 1545 1545 1545 1544 1544 1543 1543 1543 1543 1542 1542 1541 1541 1540 1539 1538 1537 1537 1536 1535 1534 1533 1532 1531 1530 1530 1530 1530 1530 1530 1530 1530 1529 1529 1529 1530 1531 1531 1532 1533
1544 1544 1544 1544 1544 1544 1543 1543 1542 1542 1542 1541 1541 1541 1540 1539 1538 1538 1536 1535 1534 1534 1533 1532 1531 1530 1529 1528 1528 1528 1528 1528 1528 1528 1528 1528 1528 1528 1528 1529 1529 1530 1531
1542 1542 1542 1542 1542 1542 1542 1542 1541 1541 1540 1540 1540 1539 1538 1538 1537 1536 1535 1534 1532 1531 1531 1530 1529 1528 1527 1527 1527 1527 1527 1527 1526 1526 1526 1526 1526 1526 1527 1527 1527 1528 1528
1541 1541 1541 1541 1541 1541 1541 1540 1540 1539 1539 1538 1538 1537 1537 1536 1535 1535 1534 1533 1531 1530 1529 1528 1527 1527 1526 1526 1526 1526 1525 1526 1525 1525 1525 1525 1525 1524 1524 1525 1525 1526 1526
1539 1539 1539 1539 1539 1539 1539 1538 1538 1538 1537 1537 1536 1535 1535 1534 1534 1533 1532 1532 1531 1528 1527 1526 1526 1525 1525 1525 1525 1525 1524 1524 1524 1523 1523 1523 1523 1523 1523 1523 1523 1523 1524
1538 1538 1538 1538 1538 1538 1537 1536 1536 1536 1535 1535 1534 1534 1533 1532 1532 1531 1531 1530 1529 1528 1526 1525 1524 1524 1524 1524 1524 1523 1523 1523 1522 1522 1522 1521 1521 1521 1521 1521 1521 1521 1521
1536 1536 1536 1536 1536 1535 1535 1534 1534 1534 1533 1533 1532 1531 1531 1530 1529 1529 1528 1527 1527 1526 1524 1523 1523 1523 1523 1523 1522 1522 1521 1521 1520 1520 1520 1520 1519 1519 1519 1519 1518 1518 1518
1533 1533 1533 1533 1533 1533 1532 1532 1532 1531 1531 1530 1530 1529 1528 1528 1527 1526 1525 1525 1524 1523 1523 1521 1521 1521 1521 1521 1521 1520 1520 1519 1519 1518 1518 1518 1517 1517 1516 1516 1516 1515 1515
1530 1531 1531 1531 1530 1530 1530 1530 1529 1529 1528 1528 1527 1526 1526 1525 1524 1524 1523 1522 1521 1521 1520 1519 1518 1518 1519 1519 1518 1518 1518 1517 1517 1517 1516 1515 1515 1515 1514 1514 1513 1513 1513
1527 1528 1528 1528 1528 1527 1527 1527 1526 1526 1525 1525 1524 1524 1523 1522 1522 1521 1520 1519 1519 1518 1518 1517 1516 1516 1516 1516 1515 1515 1515 1515 1514 1514 1514 1513 1513 1513 1512 1512 1511 1511 1511
1524 1524 1524 1524 1525 1524 1524 1524 1523 1522 1522 1522 1521 1521 1520 1520 1519 1518 1517 1517 1516 1516 1515 1514 1513 1513 1512 1512 1512 1512 1512 1512 1512 1512 1511 1511 1511 1510 1510 1510 1509 1508 1508
1521 1521 1521 1521 1521 1521 1521 1521 1520 1519 1519 1519 1518 1518 1517 1517 1516 1515 1515 1514 1514 1513 1512 1511 1510 1510 1509 1509 1509 1509 1509 1508 1508 1510 1509 1509 1509 1508 1508 1507 1507 1506 1506
1517 1517 1517 1518 1518 1518 1518 1518 1517 1517 1516 1516 1515 1515 1514 1513 1513 1512 1512 1511 1511 1510 1509 1509 1507 1507 1506 1506 1506 1506 1506 1506 1506 1506 1506 1505 1506 1505 1505 1504 1504 1504 1503
1514 1514 1514 1515 1515 1515 1515 1515 1514 1514 1513 1513 1512 1512 1511 1510 1510 1509 1509 1508 1507 1506 1506 1505 1504 1504 1504 1503 1503 1503 1503 1503 1503 1503 1503 1502 1502 1502 1502 1501 1501 1501 1501
1511 1512 1512 1512 1512 1512 1512 1512 1512 1511 1510 1509 1509 1509 1508 1507 1507 1507 1506 1504 1503 1503 1502 1502 1501 1501 1500 1500 1500 1499 1499 1499 1498 1499 1500 1499 1498 1498 1498 1498 1498 1498 1498
1508 1509 1509 1509 1509 1509 1509 1509 1509 1508 1507 1506 1506 1505 1505 1504 1504 1503 1502 1501 1499 1499 1498 1498 1497 1497 1497 1497 1497 1496 1496 1496 1495 1495 1495 1496 1495 1495 1494 1494 1495 1494 1494